QPF
0.00 0.00 0.00 0.00 0.00 0.00 0.00 0.00 0.00 0.00 0.00 0.01 0.03 0.01 0.03 0.05 0.01 0.01 0.01 0.00 0.01 0.04 0.04 0.00 0.00 0.00 0.00 0.00 0.00 0.00 0.00 0.00 0.00 0.00 0.00 0.00 0.00 0.00 0.00 0.00 0.00 0.00 0.00
0.00 0.00 0.00 0.00 0.00 0.00 0.00 0.00 0.00 0.00 0.00 0.00 0.00 0.00 0.01 0.02 0.02 0.03 0.01 0.00 0.02 0.08 0.09 0.02 0.00 0.00 0.00 0.00 0.00 0.00 0.00 0.00 0.00 0.00 0.00 0.00 0.00 0.00 0.00 0.00 0.00 0.00 0.00
0.00 0.00 0.00 0.00 0.00 0.00 0.00 0.00 0.00 0.00 0.00 0.00 0.00 0.01 0.03 0.04 0.04 0.03 0.00 0.00 0.05 0.14 0.11 0.03 0.00 0.00 0.00 0.00 0.00 0.00 0.00 0.00 0.00 0.00 0.00 0.00 0.00 0.00 0.00 0.00 0.00 0.00 0.00
0.00 0.00 0.00 0.00 0.00 0.00 0.00 0.00 0.00 0.00 0.00 0.00 0.00 0.00 0.00 0.01 0.00 0.00 0.02 0.04 0.06 0.16 0.15 0.09 0.03 0.05 0.07 0.05 0.06 0.02 0.01 0.00 0.00 0.00 0.00 0.00 0.00 0.00 0.00 0.00 0.00 0.00 0.00
0.00 0.00 0.00 0.00 0.00 0.00 0.00 0.00 0.00 0.00 0.00 0.00 0.00 0.00 0.00 0.00 0.00 0.00 0.01 0.03 0.04 0.08 0.11 0.11 0.08 0.06 0.07 0.07 0.05 0.03 0.01 0.01 0.00 0.00 0.00 0.00 0.00 0.00 0.00 0.00 0.00 0.00 0.00
0.00 0.00 0.00 0.00 0.00 0.00 0.00 0.00 0.00 0.00 0.00 0.00 0.00 0.00 0.00 0.00 0.00 0.02 0.03 0.03 0.02 0.03 0.04 0.06 0.08 0.06 0.05 0.04 0.03 0.01 0.01 0.01 0.00 0.00 0.00 0.00 0.00 0.00 0.00 0.00 0.00 0.00 0.00
0.00 0.00 0.00 0.00 0.00 0.00 0.00 0.00 0.00 0.00 0.00 0.00 0.00 0.00 0.00 0.00 0.01 0.03 0.06 0.03 0.01 0.00 0.01 0.04 0.05 0.06 0.05 0.03 0.02 0.01 0.00 0.01 0.00 0.00 0.00 0.00 0.00 0.00 0.00 0.00 0.00 0.00 0.00
0.00 0.00 0.00 0.00 0.00 0.00 0.00 0.00 0.00 0.00 0.00 0.00 0.00 0.00 0.00 0.00 0.00 0.01 0.01 0.02 0.03 0.03 0.03 0.04 0.04 0.05 0.04 0.02 0.01 0.01 0.00 0.01 0.00 0.00 0.00 0.00 0.00 0.00 0.00 0.00 0.00 0.00 0.00
0.00 0.00 0.00 0.00 0.00 0.00 0.00 0.00 0.00 0.00 0.00 0.00 0.00 0.00 0.00 0.00 0.00 0.00 0.00 0.01 0.01 0.02 0.03 0.02 0.03 0.03 0.02 0.01 0.00 0.00 0.00 0.00 0.00 0.00 0.00 0.00 0.00 0.00 0.00 0.00 0.00 0.00 0.00
0.00 0.00 0.00 0.00 0.00 0.00 0.00 0.00 0.00 0.00 0.00 0.00 0.00 0.00 0.00 0.00 0.00 0.00 0.00 0.01 0.03 0.03 0.03 0.02 0.03 0.01 0.00 0.00 0.00 0.00 0.00 0.00 0.00 0.00 0.00 0.00 0.00 0.00 0.00 0.00 0.00 0.00 0.00
0.00 0.00 0.00 0.00 0.00 0.00 0.00 0.00 0.00 0.00 0.00 0.00 0.00 0.00 0.00 0.00 0.00 0.01 0.01 0.01 0.02 0.03 0.02 0.02 0.01 0.00 0.00 0.00 0.00 0.00 0.00 0.00 0.00 0.00 0.00 0.00 0.00 0.00 0.00 0.00 0.00 0.00 0.00
0.00 0.00 0.00 0.00 0.00 0.00 0.00 0.00 0.00 0.00 0.00 0.00 0.00 0.00 0.00 0.00 0.01 0.02 0.03 0.04 0.03 0.03 0.02 0.01 0.00 0.00 0.00 0.00 0.00 0.00 0.01 0.02 0.02 0.01 0.01 0.00 0.00 0.00 0.00 0.00 0.00 0.00 0.00
0.00 0.00 0.00 0.00 0.00 0.00 0.00 0.00 0.00 0.00 0.00 0.00 0.00 0.00 0.00 0.01 0.02 0.04 0.04 0.04 0.03 0.02 0.01 0.00 0.00 0.00 0.00 0.00 0.00 0.01 0.02 0.02 0.01 0.01 0.01 0.02 0.02 0.02 0.01 0.00 0.00 0.00 0.00
0.00 0.00 0.00 0.00 0.00 0.00 0.00 0.00 0.00 0.00 0.00 0.00 0.00 0.01 0.02 0.03 0.05 0.06 0.05 0.04 0.04 0.02 0.00 0.00 0.00 0.00 0.01 0.02 0.04 0.06 0.05 0.05 0.07 0.06 0.04 0.03 0.02 0.01 0.00 0.00 0.00 0.00 0.00
0.00 0.00 0.00 0.00 0.01 0.01 0.00 0.00 0.00 0.00 0.00 0.03 0.05 0.05 0.05 0.03 0.02 0.03 0.02 0.01 0.01 0.01 0.00 0.00 0.00 0.01 0.03 0.05 0.08 0.12 0.17 0.15 0.12 0.06 0.03 0.01 0.00 0.00 0.00 0.00 0.00 0.00 0.00
0.00 0.00 0.00 0.00 0.00 0.00 0.00 0.00 0.00 0.00 0.01 0.04 0.04 0.04 0.02 0.03 0.04 0.03 0.01 0.00 0.00 0.00 0.00 0.00 0.01 0.05 0.07 0.10 0.11 0.09 0.08 0.05 0.03 0.02 0.01 0.00 0.00 0.00 0.00 0.00 0.00 0.00 0.00
0.00 0.00 0.00 0.00 0.00 0.00 0.00 0.00 0.00 0.00 0.01 0.00 0.00 0.01 0.05 0.08 0.06 0.02 0.01 0.00 0.01 0.02 0.02 0.04 0.04 0.09 0.18 0.24 0.20 0.12 0.05 0.02 0.01 0.00 0.00 0.00 0.00 0.00 0.00 0.00 0.00 0.00 0.00
0.00 0.00 0.00 0.00 0.00 0.00 0.00 0.00 0.00 0.03 0.04 0.08 0.11 0.09 0.28 0.24 0.03 0.06 0.04 0.04 0.06 0.11 0.12 0.14 0.17 0.18 0.11 0.05 0.01 0.00 0.00 0.00 0.00 0.00 0.00 0.00 0.00 0.00 0.00 0.00 0.00 0.00 0.00
0.00 0.00 0.00 0.00 0.00 0.00 0.00 0.00 0.00 0.01 0.07 0.23 0.38 0.16 0.15 0.05 0.02 0.03 0.05 0.08 0.16 0.20 0.20 0.18 0.12 0.09 0.05 0.01 0.00 0.00 0.00 0.00 0.00 0.00 0.00 0.00 0.00 0.00 0.00 0.00 0.00 0.00 0.00
0.00 0.00 0.00 0.00 0.00 0.00 0.00 0.00 0.00 0.00 0.00 0.00 0.01 0.01 0.03 0.02 0.07 0.10 0.15 0.24 0.17 0.20 0.12 0.07 0.04 0.01 0.00 0.00 0.00 0.00 0.00 0.00 0.00 0.00 0.00 0.00 0.00 0.00 0.00 0.00 0.00 0.00 0.00
0.00 0.00 0.00 0.00 0.00 0.00 0.00 0.00 0.00 0.00 0.02 0.02 0.02 0.15 0.27 0.11 0.08 0.09 0.07 0.06 0.06 0.03 0.02 0.01 0.00 0.00 0.00 0.00 0.00 0.00 0.00 0.00 0.00 0.00 0.00 0.00 0.00 0.00 0.00 0.00 0.00 0.00 0.00
0.00 0.00 0.00 0.00 0.00 0.00 0.00 0.00 0.04 0.08 0.15 0.18 0.16 0.10 0.13 0.07 0.04 0.03 0.02 0.02 0.01 0.00 0.00 0.00 0.00 0.00 0.00 0.00 0.00 0.00 0.00 0.00 0.00 0.00 0.00 0.00 0.00 0.00 0.00 0.00 0.00 0.00 0.00
0.00 0.00 0.00 0.00 0.00 0.00 0.02 0.02 0.03 0.03 0.03 0.05 0.05 0.02 0.00 0.00 0.00 0.00 0.00 0.00 0.00 0.00 0.00 0.00 0.00 0.00 0.00 0.00 0.00 0.00 0.00 0.00 0.00 0.00 0.00 0.00 0.00 0.00 0.00 0.00 0.00 0.00 0.00
0.00 0.00 0.00 0.00 0.00 0.00 0.02 0.03 0.02 0.00 0.00 0.00 0.00 0.00 0.00 0.00 0.00 0.00 0.00 0.00 0.00 0.00 0.00 0.00 0.00 0.00 0.00 0.00 0.00 0.00 0.00 0.00 0.00 0.00 0.00 0.00 0.00 0.00 0.00 0.00 0.00 0.00 0.00
0.00 0.00 0.00 0.00 0.00 0.00 0.00 0.00 0.00 0.00 0.00 0.00 0.00 0.00 0.00 0.00 0.00 0.00 0.00 0.00 0.00 0.00 0.00 0.00 0.00 0.00 0.00 0.00 0.00 0.00 0.00 0.00 0.00 0.00 0.00 0.00 0.00 0.00 0.00 0.00 0.00 0.00 0.00
0.00 0.00 0.00 0.00 0.00 0.00 0.00 0.00 0.00 0.00 0.00 0.00 0.00 0.00 0.00 0.00 0.00 0.00 0.00 0.00 0.00 0.00 0.00 0.00 0.00 0.00 0.00 0.00 0.00 0.00 0.00 0.00 0.00 0.00 0.00 0.00 0.00 0.00 0.00 0.00 0.00 0.00 0.00
MSLP
1008.67 1008.99 1008.94 1008.83 1009.06 1008.87 1009.18 1009.13 1009.14 1009.12 1009.61 1010.40 1011.02 1011.42 1011.43 1011.89 1012.18 1012.35 1012.28 1012.41 1013.06 1013.68 1014.46 1015.24 1015.91 1016.61 1017.21 1017.73 1018.40 1019.29 1019.76 1020.41 1020.45 1020.99 1021.37 1021.44 1021.51 1021.62 1021.57 1021.60 1021.87 1022.01 1022.05
1008.40 1008.31 1008.30 1008.33 1008.30 1008.16 1008.15 1008.52 1008.52 1008.49 1008.76 1009.19 1009.59 1009.93 1010.46 1010.81 1010.89 1011.39 1011.73 1011.91 1012.26 1012.96 1013.92 1014.66 1015.40 1015.77 1016.61 1017.44 1018.06 1018.42 1019.45 1020.11 1020.31 1020.78 1021.50 1021.74 1021.77 1021.56 1021.69 1021.74 1021.78 1021.95 1022.13
1008.11 1007.95 1008.07 1008.02 1007.95 1008.03 1007.90 1007.91 1007.97 1008.08 1007.97 1008.33 1008.92 1009.71 1010.09 1010.45 1010.95 1011.25 1011.41 1011.45 1011.66 1012.36 1012.91 1013.52 1014.44 1015.17 1015.73 1016.64 1017.22 1017.73 1018.18 1019.47 1020.22 1020.33 1020.58 1021.63 1021.63 1021.79 1021.81 1021.99 1022.00 1022.06 1022.22
1008.14 1007.94 1007.75 1007.72 1007.77 1007.59 1007.37 1007.43 1007.51 1007.60 1007.74 1007.86 1008.26 1008.74 1008.98 1009.45 1009.63 1009.84 1010.33 1010.91 1011.36 1011.96 1012.58 1013.41 1013.86 1014.66 1015.19 1015.83 1016.62 1017.10 1017.57 1018.17 1019.50 1020.21 1020.20 1020.54 1020.75 1021.40 1022.19 1022.25 1022.41 1022.29 1022.34
1008.26 1007.71 1007.64 1007.47 1007.18 1007.12 1006.99 1006.91 1007.08 1007.36 1007.38 1007.70 1007.72 1008.06 1008.52 1008.61 1008.74 1009.08 1009.66 1010.51 1011.16 1011.67 1012.25 1012.78 1013.74 1014.55 1015.08 1015.47 1016.24 1017.01 1017.20 1017.46 1018.48 1019.29 1020.14 1020.58 1020.96 1021.10 1021.72 1022.48 1022.69 1022.54 1022.43
1008.20 1007.90 1007.43 1007.14 1007.08 1006.92 1006.82 1006.83 1006.90 1006.94 1006.99 1007.07 1007.33 1007.57 1007.84 1008.24 1008.64 1009.25 1009.69 1010.33 1010.98 1011.53 1011.99 1012.47 1013.29 1014.00 1014.60 1015.16 1015.83 1016.46 1016.93 1017.26 1017.68 1018.74 1019.19 1019.73 1020.58 1021.23 1021.75 1022.26 1022.64 1022.82 1022.61
1009.10 1008.79 1008.45 1008.29 1007.73 1007.37 1007.11 1006.88 1006.87 1006.94 1006.93 1006.92 1007.05 1007.15 1007.24 1007.60 1007.81 1008.23 1008.87 1009.90 1010.23 1011.00 1011.33 1011.92 1012.79 1013.50 1014.12 1014.79 1015.50 1016.19 1016.72 1017.31 1017.77 1018.28 1018.99 1019.42 1019.78 1020.62 1021.52 1022.09 1022.64 1023.08 1023.11
1009.87 1009.60 1009.42 1009.04 1008.61 1008.15 1007.73 1007.46 1007.18 1006.93 1006.65 1006.68 1006.84 1006.84 1006.74 1006.94 1007.18 1007.65 1008.10 1008.38 1008.82 1009.66 1010.43 1011.43 1012.51 1013.25 1013.78 1014.58 1015.32 1016.22 1016.82 1017.29 1017.78 1018.56 1019.01 1019.47 1020.11 1020.73 1021.30 1021.77 1022.55 1023.31 1023.41
1010.05 1009.73 1009.39 1008.93 1008.60 1008.28 1007.98 1007.47 1007.09 1006.80 1006.49 1006.36 1006.28 1006.24 1006.20 1006.55 1006.65 1006.71 1007.30 1007.92 1008.56 1009.15 1010.09 1010.90 1011.99 1012.98 1013.76 1014.49 1015.30 1016.24 1017.08 1017.50 1018.15 1018.75 1019.56 1019.40 1020.52 1020.99 1021.72 1021.97 1022.19 1022.88 1023.60
1009.69 1009.42 1009.20 1008.73 1008.41 1008.12 1007.72 1007.63 1007.14 1006.77 1006.41 1006.16 1005.94 1005.82 1005.64 1005.61 1006.01 1006.58 1007.18 1007.79 1008.41 1009.16 1010.07 1010.91 1011.93 1012.91 1013.75 1014.52 1015.36 1016.37 1017.25 1017.95 1018.79 1019.32 1019.81 1019.80 1020.62 1021.02 1021.79 1022.29 1022.45 1022.81 1023.24
1009.45 1009.10 1008.78 1008.36 1007.87 1007.38 1007.26 1007.38 1007.09 1006.77 1006.36 1005.94 1005.70 1005.63 1005.90 1006.25 1006.28 1006.84 1007.35 1007.67 1008.63 1009.21 1010.09 1011.00 1012.05 1012.93 1013.85 1014.70 1015.56 1016.56 1017.46 1018.03 1018.96 1019.74 1020.48 1020.15 1020.70 1020.95 1021.56 1022.21 1022.39 1022.68 1023.08
1008.95 1008.76 1008.47 1007.86 1007.24 1006.98 1006.91 1007.04 1007.22 1006.91 1006.22 1005.73 1005.81 1005.88 1006.05 1006.47 1007.06 1007.37 1007.95 1008.33 1008.59 1009.86 1010.34 1011.34 1012.17 1013.15 1014.14 1015.03 1015.92 1016.92 1018.05 1018.57 1019.33 1019.87 1019.93 1020.27 1021.02 1021.03 1021.37 1021.92 1022.10 1022.29 1022.49
1008.96 1008.78 1008.38 1007.54 1007.21 1007.24 1007.22 1007.68 1007.74 1007.24 1006.62 1006.49 1006.56 1006.65 1006.69 1006.89 1007.51 1007.72 1008.02 1008.81 1009.07 1010.15 1011.21 1011.86 1012.58 1013.52 1014.54 1015.61 1016.66 1017.40 1018.27 1019.08 1020.01 1020.74 1019.89 1020.48 1020.85 1021.19 1021.62 1021.57 1021.70 1022.02 1022.09
1009.21 1008.97 1008.62 1007.97 1007.43 1007.88 1007.59 1008.32 1008.21 1007.83 1007.46 1007.29 1007.38 1007.37 1007.53 1007.67 1007.96 1008.32 1008.60 1009.28 1009.70 1010.59 1011.72 1012.52 1013.46 1014.23 1015.14 1016.05 1017.14 1018.01 1018.56 1019.06 1020.26 1020.72 1020.66 1020.53 1020.94 1020.76 1021.27 1021.34 1021.43 1021.40 1021.83
1009.67 1009.30 1009.09 1008.91 1008.44 1008.38 1009.04 1009.20 1008.94 1008.60 1008.20 1008.05 1007.85 1008.10 1008.31 1008.26 1008.43 1009.02 1009.63 1010.07 1010.71 1011.34 1012.21 1013.39 1014.51 1015.25 1015.88 1016.75 1017.62 1018.54 1018.85 1019.40 1020.50 1020.89 1020.91 1020.75 1020.56 1020.44 1020.72 1020.84 1020.91 1020.93 1021.10
1010.32 1009.80 1009.56 1009.51 1009.78 1009.80 1009.80 1009.72 1009.68 1009.27 1009.03 1008.75 1009.02 1009.11 1009.42 1009.48 1009.75 1010.24 1011.01 1011.49 1011.94 1012.40 1013.28 1014.56 1015.49 1016.04 1016.76 1017.36 1018.14 1018.86 1019.33 1019.95 1019.95 1020.59 1020.79 1020.54 1020.52 1020.64 1020.70 1020.62 1020.53 1020.44 1020.31
1010.83 1010.20 1009.88 1010.02 1010.33 1010.39 1010.50 1010.62 1010.41 1010.22 1010.10 1010.04 1010.49 1010.69 1010.87 1011.03 1011.23 1011.38 1012.01 1012.63 1013.08 1013.68 1014.58 1015.56 1016.37 1017.17 1017.70 1018.00 1018.36 1018.94 1019.47 1020.25 1020.61 1020.51 1020.64 1020.90 1020.86 1020.73 1020.64 1020.53 1020.36 1020.14 1019.92
1011.33 1010.96 1010.93 1011.10 1011.16 1011.20 1011.20 1011.02 1011.15 1011.22 1011.06 1011.05 1011.17 1011.73 1011.97 1011.93 1012.81 1012.80 1012.75 1013.47 1014.16 1014.63 1015.75 1016.68 1017.29 1017.44 1017.60 1018.74 1019.00 1019.42 1020.08 1020.43 1020.42 1020.53 1020.85 1021.19 1020.92 1020.55 1020.16 1020.13 1019.86 1019.71 1019.56
1012.05 1011.89 1011.85 1011.87 1011.92 1011.87 1011.95 1011.92 1012.12 1012.13 1011.86 1012.16 1012.17 1012.50 1012.91 1013.32 1013.62 1013.80 1013.99 1014.65 1014.98 1015.88 1016.58 1017.64 1017.73 1017.82 1018.70 1018.97 1018.91 1019.67 1020.12 1020.15 1020.44 1020.77 1020.89 1020.73 1020.50 1020.23 1019.79 1019.42 1019.46 1019.39 1019.18
1012.71 1012.46 1012.36 1012.47 1012.54 1012.68 1012.71 1012.70 1012.95 1012.99 1013.02 1013.12 1013.17 1013.62 1014.15 1014.38 1014.60 1014.99 1015.18 1015.73 1016.07 1016.88 1017.07 1018.05 1018.63 1018.84 1018.90 1019.18 1019.38 1019.74 1020.04 1020.41 1020.51 1020.56 1020.59 1020.53 1020.19 1019.70 1019.28 1018.99 1019.13 1019.09 1018.86
1013.26 1013.11 1013.09 1013.23 1013.39 1013.41 1013.47 1013.68 1013.91 1013.97 1014.01 1014.08 1014.23 1014.58 1014.98 1015.18 1015.27 1015.49 1016.14 1016.60 1016.97 1017.55 1018.28 1018.75 1019.25 1019.41 1019.57 1019.58 1019.46 1019.53 1020.09 1020.32 1020.35 1020.38 1020.40 1020.20 1019.79 1019.31 1018.92 1018.79 1018.93 1018.86 1018.36
1013.79 1013.73 1013.72 1013.89 1014.06 1014.13 1014.11 1014.46 1014.68 1014.99 1014.88 1014.95 1015.37 1015.60 1015.61 1015.82 1016.17 1016.48 1016.99 1017.18 1017.64 1018.43 1018.91 1019.33 1019.83 1020.00 1019.99 1019.89 1019.88 1020.00 1020.02 1020.06 1020.28 1020.23 1020.05 1019.78 1019.39 1019.08 1018.92 1018.85 1018.77 1018.38 1018.04
1014.21 1014.36 1014.30 1014.41 1014.61 1014.74 1014.73 1015.04 1015.41 1015.48 1015.62 1015.72 1016.05 1016.25 1016.46 1016.70 1016.89 1017.22 1017.63 1018.21 1018.71 1019.00 1019.40 1019.79 1020.29 1020.49 1020.48 1020.53 1020.47 1020.33 1020.16 1020.03 1019.89 1019.83 1019.59 1019.44 1019.24 1019.20 1019.12 1018.90 1018.48 1018.28 1018.36
1014.48 1014.68 1014.86 1014.90 1015.11 1015.26 1015.36 1015.54 1015.69 1015.85 1016.01 1016.36 1016.72 1017.02 1017.39 1017.77 1018.02 1018.24 1018.54 1018.92 1019.29 1019.65 1020.06 1020.45 1020.88 1021.05 1020.96 1020.72 1020.47 1020.30 1020.14 1019.93 1019.75 1019.70 1019.73 1019.70 1019.66 1019.52 1019.27 1019.04 1018.90 1018.72 1018.40
1014.71 1014.88 1015.10 1015.24 1015.46 1015.65 1015.84 1015.96 1016.02 1016.26 1016.68 1017.15 1017.55 1017.90 1018.22 1018.48 1018.85 1019.11 1019.30 1019.55 1019.78 1019.98 1020.38 1020.71 1020.81 1020.80 1020.79 1020.58 1020.20 1020.07 1019.92 1019.78 1019.76 1019.84 1019.90 1019.81 1019.76 1019.72 1019.54 1019.32 1019.10 1018.76 1018.38
1014.91 1015.10 1015.34 1015.48 1015.69 1015.92 1016.18 1016.36 1016.52 1016.81 1017.23 1017.87 1018.31 1018.60 1018.85 1019.23 1019.53 1019.70 1019.92 1019.76 1019.95 1020.13 1020.29 1020.49 1020.50 1020.53 1020.44 1020.32 1020.33 1020.25 1020.05 1020.07 1019.90 1020.14 1020.34 1020.35 1020.23 1019.93 1019.53 1019.23 1019.03 1018.78 1018.32
Thickness
5681 5678 5679 5682 5684 5687 5683 5683 5684 5688 5687 5681 5676 5674 5677 5673 5672 5674 5673 5673 5669 5666 5657 5650 5644 5639 5635 5631 5626 5617 5613 5607 5606 5601 5597 5594 5591 5588 5587 5584 5579 5577 5575
5672 5676 5677 5678 5680 5684 5685 5680 5682 5684 5684 5683 5683 5681 5677 5676 5676 5673 5671 5671 5670 5665 5653 5647 5641 5640 5633 5626 5621 5618 5608 5602 5599 5595 5587 5586 5583 5581 5578 5576 5574 5570 5567
5669 5672 5670 5671 5674 5676 5679 5679 5677 5677 5681 5681 5678 5672 5671 5670 5666 5664 5667 5667 5667 5660 5653 5648 5642 5637 5633 5625 5620 5615 5612 5600 5592 5590 5589 5575 5579 5571 5569 5565 5563 5561 5558
5658 5662 5665 5665 5665 5668 5671 5673 5674 5673 5672 5674 5672 5671 5672 5669 5671 5669 5666 5662 5660 5656 5649 5641 5638 5633 5628 5622 5616 5611 5607 5603 5591 5584 5583 5578 5575 5571 5563 5556 5552 5551 5549
5647 5653 5656 5659 5662 5662 5663 5665 5666 5666 5666 5665 5668 5667 5665 5668 5668 5666 5663 5655 5650 5648 5644 5638 5630 5625 5621 5617 5610 5603 5601 5600 5590 5583 5575 5570 5564 5561 5553 5549 5543 5541 5539
5640 5644 5649 5652 5652 5651 5653 5654 5654 5656 5656 5657 5658 5660 5660 5657 5655 5652 5652 5647 5642 5638 5636 5632 5626 5620 5616 5611 5605 5599 5595 5592 5589 5579 5574 5569 5561 5551 5544 5538 5532 5528 5528
5624 5625 5628 5631 5636 5640 5640 5643 5644 5643 5644 5645 5647 5650 5652 5649 5649 5649 5648 5639 5639 5633 5630 5626 5620 5614 5609 5604 5599 5593 5587 5582 5578 5573 5566 5561 5556 5547 5538 5531 5522 5518 5513
5606 5608 5611 5612 5614 5618 5622 5623 5627 5628 5630 5631 5631 5635 5639 5640 5640 5639 5638 5639 5639 5636 5628 5619 5611 5606 5602 5596 5590 5583 5577 5573 5568 5560 5555 5550 5543 5536 5529 5523 5513 5505 5499
5599 5600 5600 5600 5599 5599 5601 5604 5606 5609 5612 5614 5617 5620 5625 5626 5628 5630 5629 5628 5627 5625 5619 5614 5603 5597 5593 5587 5579 5572 5565 5561 5555 5549 5541 5540 5529 5522 5515 5509 5505 5496 5489
5589 5588 5587 5587 5584 5584 5584 5582 5586 5590 5594 5597 5600 5605 5611 5614 5614 5613 5613 5612 5612 5610 5605 5600 5593 5586 5582 5576 5569 5560 5554 5547 5539 5533 5528 5525 5516 5512 5503 5495 5490 5484 5477
5580 5579 5574 5573 5572 5572 5568 5565 5566 5569 5574 5580 5586 5590 5591 5592 5594 5595 5595 5598 5594 5595 5591 5587 5580 5575 5570 5564 5557 5550 5542 5537 5528 5520 5512 5513 5505 5502 5492 5483 5477 5471 5463
5576 5569 5565 5564 5562 5554 5550 5545 5544 5547 5556 5564 5566 5569 5571 5571 5571 5574 5574 5577 5581 5574 5575 5571 5568 5562 5556 5551 5545 5537 5527 5522 5514 5507 5507 5502 5494 5488 5481 5473 5467 5460 5453
5563 5555 5549 5546 5535 5530 5527 5522 5520 5525 5535 5540 5542 5544 5548 5552 5553 5557 5561 5561 5564 5559 5555 5555 5554 5549 5544 5537 5531 5524 5516 5508 5498 5490 5494 5488 5483 5474 5467 5463 5456 5448 5442
5555 5546 5534 5526 5522 5509 5508 5500 5503 5509 5516 5521 5523 5527 5529 5533 5536 5537 5542 5544 5547 5545 5540 5539 5536 5535 5532 5526 5517 5508 5503 5499 5487 5481 5478 5476 5467 5465 5455 5450 5444 5439 5429
5540 5535 5526 5511 5505 5500 5491 5488 5490 5495 5502 5507 5512 5513 5514 5518 5520 5519 5520 5524 5528 5530 5528 5523 5518 5517 5516 5511 5503 5496 5492 5485 5474 5469 5465 5463 5460 5456 5448 5441 5432 5426 5418
5526 5522 5520 5509 5496 5486 5483 5482 5482 5486 5492 5497 5497 5499 5498 5498 5497 5497 5498 5504 5509 5514 5514 5508 5504 5503 5500 5497 5491 5483 5478 5470 5468 5460 5454 5452 5448 5441 5434 5428 5422 5417 5409
5519 5517 5516 5502 5491 5484 5480 5475 5476 5478 5480 5483 5481 5481 5481 5481 5483 5487 5487 5491 5496 5500 5498 5494 5489 5485 5484 5483 5479 5473 5467 5456 5451 5449 5444 5437 5432 5426 5419 5414 5409 5404 5396
5512 5507 5499 5489 5482 5479 5477 5477 5474 5472 5473 5475 5475 5471 5470 5470 5470 5477 5483 5483 5486 5488 5483 5477 5476 5477 5474 5467 5465 5460 5452 5445 5441 5437 5429 5420 5416 5413 5411 5403 5397 5391 5381
5506 5501 5493 5485 5481 5479 5475 5473 5469 5467 5471 5468 5468 5468 5466 5466 5469 5473 5477 5476 5477 5474 5472 5466 5466 5467 5461 5458 5456 5447 5440 5437 5430 5424 5417 5413 5407 5403 5401 5396 5388 5378 5366
5501 5497 5493 5488 5482 5477 5474 5471 5468 5466 5464 5463 5464 5463 5461 5463 5466 5466 5468 5467 5467 5463 5462 5457 5455 5452 5451 5449 5445 5438 5431 5424 5419 5413 5407 5402 5399 5394 5389 5382 5371 5360 5349
5495 5493 5489 5483 5478 5475 5472 5467 5463 5462 5461 5460 5460 5458 5458 5459 5461 5463 5461 5459 5458 5455 5451 5448 5443 5442 5439 5436 5435 5430 5419 5413 5409 5402 5395 5389 5385 5381 5374 5365 5352 5342 5335
5492 5490 5486 5480 5477 5473 5471 5465 5463 5459 5460 5460 5456 5455 5456 5459 5458 5457 5454 5454 5452 5446 5441 5436 5432 5429 5426 5426 5421 5415 5411 5407 5399 5392 5385 5379 5374 5367 5358 5347 5336 5328 5317
5490 5485 5483 5478 5474 5471 5469 5466 5462 5461 5459 5458 5456 5457 5455 5454 5453 5450 5446 5442 5439 5435 5431 5428 5422 5418 5415 5409 5406 5402 5399 5394 5388 5381 5375 5368 5360 5349 5337 5327 5319 5309 5295
5488 5484 5480 5476 5471 5469 5467 5463 5463 5461 5459 5457 5454 5451 5448 5445 5443 5441 5439 5435 5431 5427 5423 5418 5410 5404 5401 5398 5395 5392 5386 5382 5375 5367 5356 5347 5337 5327 5318 5307 5298 5290 5288
5487 5483 5478 5476 5472 5469 5466 5464 5463 5460 5455 5451 5448 5445 5442 5439 5435 5432 5430 5426 5422 5418 5411 5406 5402 5398 5394 5392 5389 5383 5377 5369 5360 5348 5337 5327 5317 5306 5297 5290 5284 5283 5282
5482 5479 5477 5475 5472 5469 5466 5463 5460 5457 5454 5447 5443 5439 5435 5431 5427 5424 5420 5422 5417 5412 5407 5402 5399 5394 5389 5384 5376 5369 5361 5351 5343 5328 5314 5302 5292 5284 5282 5283 5280 5277 5277